sat.trackr.live / text

‹ back to catalog

HYLAS 1

NORAD 37237 · 2010-065A

PAYLOAD ACTIVE UNKNOWN

§ Identity

Operator
Country
UK
Launch date
2010-11-26
Launch site
FRGUI
Launch vehicle
Mass (kg)
RCS (m²)
119.95

Purposes: comms

External: N2YO · Heavens-Above · Gunter

§ Orbital elements

Epoch: 2026-09-19T20:50:38.696352Z

Period
1,430.85 min
Inclination
5.8762°
Eccentricity
0.0003638
Mean motion
1.00639270 rev/d
Perigee alt
35,668.6 km
Apogee alt
35,699.2 km
Semi-major
42,062.0 km
B*
0.0000e+0
RAAN
71.8075°
Arg perigee
158.1687°
Mean anomaly
203.9957°
Rev number
784

§ Raw data

HYLAS 11 37237U 10065A   26262.86850343 -.00000331  00000+0  00000+0 0  99952 37237   5.8762  71.8075 0003638 158.1687 203.9957  1.00639270  7848

JSON: /api/v1/satellites/37237 · /tle

For live sub-satellite position, see the globe view (requires WebGL).

§ Visibility from observer

Set your observer location to see the next 7 days of passes ≥ 10°. The values pass through the URL so the page stays shareable.

No JS? Fill the form by hand. The geolocation button needs JavaScript.